Terug naar catalogus

MICE-1

ActiefMilitairSSO
NORAD 66684·PAYLOAD·🇬🇷 Greece

Gelanceerd Nov 28, 2025 vanaf Vandenberg Space Force Base

Loading…

Volgende Passages (komende 24 uur)

TLE

VersSource: Space-Track

Epoch: Sep 14, 2026, 11:28 UTC

1 66684U 25276U   26257.47800062  .00002908  00000-0  13922-3 0  9990
2 66684  97.4198 329.6170 0006559  53.7900 306.3941 15.19727490 43971

Volg MICE-1 in realtime met AllMySat

Download on the App Store